Location: *
(37.5724°S, 58.0067°E)
Time: 02:09:23
(UTC+00:00)

NOSS 3-1 (A) - Pass Details

Date: 23 June 2021
Orbit: 729 x 1483 km, 63.4° (Epoch: 23 July)

Event Time Altitude Azimuth Distance (km) Brightness Sun altitude
Rises 15:51:24 0° 210° (SSW) 3,803 6.9 -33.6°
Reaches altitude 10° 15:54:19 10° 204° (SSW) 2,728 6.0 -34.1°
Enters shadow 15:55:59 18° 198° (SSW) 2,137 5.4 -34.5°
